Year,Month,Day,Hour,Minute,Value (Times are PST for temperature in C)
2003,01,25,00,00,8.40
2003,01,25,00,30,8.30
2003,01,25,01,00,8.20
2003,01,25,01,30,8.20
2003,01,25,02,00,8.30
2003,01,25,02,30,8.70
2003,01,25,03,00,8.70
2003,01,25,03,30,8.70
2003,01,25,04,00,8.70
2003,01,25,04,30,8.70
2003,01,25,05,00,8.70
2003,01,25,05,30,8.60
2003,01,25,06,00,8.60
2003,01,25,06,30,8.60
2003,01,25,07,00,8.70
2003,01,25,07,30,8.70
2003,01,25,08,00,8.20
2003,01,25,08,30,8.10
2003,01,25,09,00,8.20
2003,01,25,09,30,8.40
2003,01,25,09,37,8.50
2003,01,25,09,38,8.50
2003,01,25,09,39,8.50
2003,01,25,09,40,8.60
2003,01,25,09,41,8.60
2003,01,25,09,42,8.60
2003,01,25,09,43,8.60
2003,01,25,09,44,8.70
2003,01,25,09,45,8.70
2003,01,25,09,46,8.70
2003,01,25,09,47,8.70
2003,01,25,09,48,8.70
2003,01,25,09,49,8.70
2003,01,25,09,50,8.70
2003,01,25,09,51,8.70
2003,01,25,09,52,8.70
2003,01,25,09,53,8.70
2003,01,25,09,54,8.70
2003,01,25,09,55,8.70
2003,01,25,09,56,8.70
2003,01,25,09,57,8.70
2003,01,25,09,58,8.70
2003,01,25,09,59,8.70
2003,01,25,10,00,8.80
2003,01,25,10,01,8.80
2003,01,25,10,02,8.80
2003,01,25,10,03,8.80
2003,01,25,10,04,8.80
2003,01,25,10,05,8.90
2003,01,25,10,06,8.90
2003,01,25,10,07,8.90
2003,01,25,10,08,8.90
2003,01,25,10,09,8.90
2003,01,25,10,10,8.80
2003,01,25,10,11,8.80
2003,01,25,10,12,8.80
2003,01,25,10,13,8.80
2003,01,25,10,14,8.90
2003,01,25,10,15,8.90
2003,01,25,10,16,8.90
2003,01,25,10,17,8.90
2003,01,25,10,18,8.90
2003,01,25,10,19,8.90
2003,01,25,10,20,8.90
2003,01,25,10,21,8.90
2003,01,25,10,22,8.90
2003,01,25,10,23,8.80
2003,01,25,10,24,8.80
2003,01,25,10,25,8.80
2003,01,25,10,26,8.90
2003,01,25,10,27,8.90
2003,01,25,10,28,8.90
2003,01,25,10,29,8.90
2003,01,25,10,30,8.90
2003,01,25,10,31,9.00
2003,01,25,10,32,9.00
2003,01,25,10,33,9.10
2003,01,25,10,34,9.10
2003,01,25,10,35,9.10
2003,01,25,10,36,9.10
2003,01,25,10,37,9.10
2003,01,25,10,38,9.10
2003,01,25,10,39,9.10
2003,01,25,10,40,9.10
2003,01,25,10,41,9.20
2003,01,25,10,42,9.20
2003,01,25,10,43,9.20
2003,01,25,10,44,9.20
2003,01,25,10,45,9.20
2003,01,25,10,46,9.10
2003,01,25,10,47,9.10
2003,01,25,10,48,9.10
2003,01,25,10,49,9.00
2003,01,25,10,50,9.00
2003,01,25,10,51,9.00
2003,01,25,10,52,8.90
2003,01,25,10,53,8.90
2003,01,25,10,54,8.90
2003,01,25,10,55,8.90
2003,01,25,10,56,8.90
2003,01,25,10,57,8.90
2003,01,25,10,58,9.00
2003,01,25,10,59,9.00
2003,01,25,11,00,9.00
2003,01,25,11,01,9.10
2003,01,25,11,02,9.10
2003,01,25,11,03,9.20
2003,01,25,11,04,9.20
2003,01,25,11,05,9.20
2003,01,25,11,06,9.20
2003,01,25,11,07,9.20
2003,01,25,11,08,9.30
2003,01,25,11,09,9.30
2003,01,25,11,10,9.30
2003,01,25,11,11,9.30
2003,01,25,11,12,9.30
2003,01,25,11,13,9.30
2003,01,25,11,14,9.30
2003,01,25,11,15,9.30
2003,01,25,11,16,9.20
2003,01,25,11,17,9.20
2003,01,25,11,18,9.20
2003,01,25,11,19,9.10
2003,01,25,11,20,9.10
2003,01,25,11,21,9.10
2003,01,25,11,22,9.10
2003,01,25,11,23,9.00
2003,01,25,11,24,9.00
2003,01,25,11,25,8.90
2003,01,25,11,26,8.90
2003,01,25,11,27,8.90
2003,01,25,11,28,8.90
2003,01,25,11,29,8.90
2003,01,25,11,30,8.90
2003,01,25,11,31,8.90
2003,01,25,11,32,8.90
2003,01,25,11,33,8.90
2003,01,25,11,34,8.90
2003,01,25,11,35,8.90
2003,01,25,11,36,8.90
2003,01,25,11,37,8.90
2003,01,25,11,38,8.90
2003,01,25,11,39,8.90
2003,01,25,11,40,8.90
2003,01,25,11,41,8.90
2003,01,25,11,42,8.90
2003,01,25,11,43,8.90
2003,01,25,11,44,9.00
2003,01,25,11,45,9.00
2003,01,25,11,46,9.00
2003,01,25,11,47,9.10
2003,01,25,11,48,9.10
2003,01,25,11,49,9.10
2003,01,25,11,50,9.10
2003,01,25,11,51,9.00
2003,01,25,11,52,9.00
2003,01,25,11,53,9.00
2003,01,25,11,54,9.10
2003,01,25,11,55,9.10
2003,01,25,11,56,9.10
2003,01,25,11,57,9.10
2003,01,25,11,58,9.10
2003,01,25,11,59,9.10
2003,01,25,12,00,9.20
2003,01,25,12,01,9.20
2003,01,25,12,02,9.20
2003,01,25,12,03,9.20
2003,01,25,12,04,9.20
2003,01,25,12,05,9.20
2003,01,25,12,06,9.20
2003,01,25,12,07,9.20
2003,01,25,12,08,9.20
2003,01,25,12,09,9.20
2003,01,25,12,10,9.20
2003,01,25,12,11,9.20
2003,01,25,12,12,9.20
2003,01,25,12,13,9.20
2003,01,25,12,14,9.20
2003,01,25,12,15,9.20
2003,01,25,12,16,9.20
2003,01,25,12,17,9.20
2003,01,25,12,18,9.20
2003,01,25,12,19,9.20
2003,01,25,12,20,9.20
2003,01,25,12,21,9.20
2003,01,25,12,22,9.20
2003,01,25,12,23,9.20
2003,01,25,12,24,9.20
2003,01,25,12,25,9.10
2003,01,25,12,26,9.10
2003,01,25,12,27,9.10
2003,01,25,12,28,9.00
2003,01,25,12,29,9.00
2003,01,25,12,30,9.00
2003,01,25,12,31,9.00
2003,01,25,12,32,9.00
2003,01,25,12,33,9.00
2003,01,25,12,34,9.00
2003,01,25,12,35,9.00
2003,01,25,12,36,9.00
2003,01,25,12,37,9.00
2003,01,25,12,38,9.10
2003,01,25,12,39,9.10
2003,01,25,12,40,9.10
2003,01,25,12,41,9.10
2003,01,25,12,42,9.10
2003,01,25,12,43,9.10
2003,01,25,12,44,9.10
2003,01,25,12,45,9.10
2003,01,25,12,46,9.10
2003,01,25,12,47,9.10
2003,01,25,12,48,9.10
2003,01,25,12,49,9.10
2003,01,25,12,50,9.10
2003,01,25,12,51,9.10
2003,01,25,12,52,9.10
2003,01,25,12,53,9.10
2003,01,25,12,54,9.10
2003,01,25,12,55,9.10
2003,01,25,12,56,9.20
2003,01,25,12,57,9.20
2003,01,25,12,58,9.20
2003,01,25,12,59,9.10
2003,01,25,13,00,9.10
2003,01,25,13,01,9.10
2003,01,25,13,02,9.10
2003,01,25,13,03,9.10
2003,01,25,13,04,9.10
2003,01,25,13,05,9.10
2003,01,25,13,06,9.10
2003,01,25,13,07,9.10
2003,01,25,13,08,9.10
2003,01,25,13,09,9.20
2003,01,25,13,10,9.20
2003,01,25,13,11,9.20
2003,01,25,13,12,9.20
2003,01,25,13,13,9.20
2003,01,25,13,14,9.20
2003,01,25,13,15,9.20
2003,01,25,13,16,9.20
2003,01,25,13,17,9.20
2003,01,25,13,18,9.20
2003,01,25,13,19,9.20
2003,01,25,13,20,9.20
2003,01,25,13,21,9.20
2003,01,25,13,22,9.20
2003,01,25,13,23,9.30
2003,01,25,13,24,9.30
2003,01,25,13,25,9.30
2003,01,25,13,26,9.40
2003,01,25,13,27,9.40
2003,01,25,13,28,9.40
2003,01,25,13,29,9.40
2003,01,25,13,30,9.40
2003,01,25,13,31,9.40
2003,01,25,13,32,9.40
2003,01,25,13,33,9.50
2003,01,25,13,34,9.50
2003,01,25,13,35,9.50
2003,01,25,13,36,9.50
2003,01,25,13,37,9.50
2003,01,25,13,38,9.50
2003,01,25,13,39,9.50
2003,01,25,13,40,9.50
2003,01,25,13,41,9.60
2003,01,25,13,42,9.60
2003,01,25,13,43,9.60
2003,01,25,13,44,9.60
2003,01,25,13,45,9.60
2003,01,25,13,46,9.60
2003,01,25,13,47,9.60
2003,01,25,13,48,9.60
2003,01,25,13,49,9.60
2003,01,25,13,50,9.60
2003,01,25,13,51,9.60
2003,01,25,13,52,9.60
2003,01,25,13,53,9.60
2003,01,25,13,54,9.60
2003,01,25,13,55,9.60
2003,01,25,13,56,9.60
2003,01,25,13,57,9.60
2003,01,25,13,58,9.60
2003,01,25,13,59,9.60
2003,01,25,14,00,9.50
2003,01,25,14,01,9.50
2003,01,25,14,02,9.50
2003,01,25,14,03,9.50
2003,01,25,14,04,9.50
2003,01,25,14,05,9.40
2003,01,25,14,06,9.40
2003,01,25,14,07,9.30
2003,01,25,14,08,9.30
2003,01,25,14,09,9.30
2003,01,25,14,10,9.30
2003,01,25,14,11,9.30
2003,01,25,14,12,9.30
2003,01,25,14,13,9.30
2003,01,25,14,14,9.40
2003,01,25,14,15,9.40
2003,01,25,14,16,9.40
2003,01,25,14,17,9.40
2003,01,25,14,18,9.40
2003,01,25,14,19,9.40
2003,01,25,14,20,9.40
2003,01,25,14,21,9.50
2003,01,25,14,22,9.50
2003,01,25,14,23,9.50
2003,01,25,14,24,9.50
2003,01,25,14,25,9.50
2003,01,25,14,26,9.50
2003,01,25,14,27,9.50
2003,01,25,14,28,9.50
2003,01,25,14,29,9.50
2003,01,25,14,30,9.50
2003,01,25,14,31,9.50
2003,01,25,14,32,9.50
2003,01,25,14,33,9.50
2003,01,25,14,34,9.50
2003,01,25,14,35,9.50
2003,01,25,14,36,9.50
2003,01,25,14,37,9.50
2003,01,25,14,38,9.50
2003,01,25,14,39,9.50
2003,01,25,14,40,9.50
2003,01,25,14,41,9.50
2003,01,25,14,42,9.50
2003,01,25,14,43,9.50
2003,01,25,14,44,9.50
2003,01,25,14,45,9.50
2003,01,25,14,46,9.40
2003,01,25,14,47,9.50
2003,01,25,14,48,9.50
2003,01,25,14,49,9.50
2003,01,25,14,50,9.50
2003,01,25,14,51,9.50
2003,01,25,14,52,9.50
2003,01,25,14,53,9.50
2003,01,25,14,54,9.50
2003,01,25,14,55,9.50
2003,01,25,14,56,9.50
2003,01,25,14,57,9.50
2003,01,25,14,58,9.60
2003,01,25,14,59,9.50
2003,01,25,15,00,9.50
2003,01,25,15,01,9.60
2003,01,25,15,02,9.60
2003,01,25,15,03,9.60
2003,01,25,15,04,9.60
2003,01,25,15,05,9.60
2003,01,25,15,06,9.60
2003,01,25,15,07,9.70
2003,01,25,15,08,9.70
2003,01,25,15,09,9.70
2003,01,25,15,10,9.70
2003,01,25,15,11,9.70
2003,01,25,15,12,9.70
2003,01,25,15,13,9.70
2003,01,25,15,14,9.70
2003,01,25,15,15,9.70
2003,01,25,15,16,9.70
2003,01,25,15,17,9.70
2003,01,25,15,18,9.70
2003,01,25,15,19,9.70
2003,01,25,15,20,9.70
2003,01,25,15,21,9.70
2003,01,25,15,22,9.70
2003,01,25,15,23,9.70
2003,01,25,15,24,9.70
2003,01,25,15,25,9.70
2003,01,25,15,26,9.70
2003,01,25,15,27,9.70
2003,01,25,15,28,9.70
2003,01,25,15,29,9.70
2003,01,25,15,30,9.70
2003,01,25,15,31,9.80
2003,01,25,15,32,9.70
2003,01,25,15,33,9.70
2003,01,25,15,34,9.70
2003,01,25,15,35,9.70
2003,01,25,15,36,9.70
2003,01,25,15,37,9.70
2003,01,25,15,38,9.70
2003,01,25,15,39,9.70
2003,01,25,15,40,9.70
2003,01,25,15,41,9.70
2003,01,25,15,42,9.70
2003,01,25,15,43,9.70
2003,01,25,15,44,9.70
2003,01,25,15,45,9.70
2003,01,25,15,46,9.70
2003,01,25,15,47,9.70
2003,01,25,15,48,9.70
2003,01,25,15,49,9.70
2003,01,25,15,50,9.70
2003,01,25,15,51,9.70
2003,01,25,15,52,9.70
2003,01,25,15,53,9.70
2003,01,25,15,54,9.70
2003,01,25,15,55,9.70
2003,01,25,15,56,9.60
2003,01,25,15,57,9.60
2003,01,25,15,58,9.60
2003,01,25,15,59,9.60
2003,01,25,16,00,9.60
2003,01,25,16,01,9.60
2003,01,25,16,02,9.60
2003,01,25,16,03,9.60
2003,01,25,16,04,9.60
2003,01,25,16,05,9.60
2003,01,25,16,06,9.60
2003,01,25,16,07,9.60
2003,01,25,16,08,9.60
2003,01,25,16,09,9.60
2003,01,25,16,10,9.60
2003,01,25,16,11,9.60
2003,01,25,16,12,9.60
2003,01,25,16,13,9.70
2003,01,25,16,14,9.70
2003,01,25,16,15,9.70
2003,01,25,16,16,9.70
2003,01,25,16,17,9.70
2003,01,25,16,18,9.70
2003,01,25,16,19,9.70
2003,01,25,16,20,9.70
2003,01,25,16,21,9.70
2003,01,25,16,22,9.70
2003,01,25,16,23,9.70
2003,01,25,16,24,9.70
2003,01,25,16,25,9.70
2003,01,25,16,26,9.60
2003,01,25,16,27,9.60
2003,01,25,16,28,9.50
2003,01,25,16,29,9.40
2003,01,25,16,30,9.40
2003,01,25,16,31,9.40
2003,01,25,16,32,9.40
2003,01,25,16,33,9.40
2003,01,25,16,34,9.40
2003,01,25,16,35,9.50
2003,01,25,16,36,9.50
2003,01,25,16,37,9.50
2003,01,25,16,38,9.50
2003,01,25,16,39,9.50
2003,01,25,16,40,9.50
2003,01,25,16,41,9.50
2003,01,25,16,42,9.50
2003,01,25,16,43,9.50
2003,01,25,16,44,9.50
2003,01,25,16,45,9.50
2003,01,25,16,46,9.50
2003,01,25,16,47,9.40
2003,01,25,16,48,9.40
2003,01,25,16,49,9.30
2003,01,25,16,50,9.30
2003,01,25,16,51,9.30
2003,01,25,16,52,9.20
2003,01,25,16,53,9.20
2003,01,25,16,54,9.20
2003,01,25,16,55,9.20
2003,01,25,16,56,9.10
2003,01,25,16,57,9.00
2003,01,25,16,58,9.00
2003,01,25,16,59,9.00
2003,01,25,17,00,9.00
2003,01,25,17,01,9.00
2003,01,25,17,02,9.00
2003,01,25,17,03,8.90
2003,01,25,17,04,8.90
2003,01,25,17,05,8.80
2003,01,25,17,06,8.80
2003,01,25,17,07,8.80
2003,01,25,17,08,8.80
2003,01,25,17,09,8.80
2003,01,25,17,10,8.70
2003,01,25,17,11,8.70
2003,01,25,17,12,8.70
2003,01,25,17,13,8.70
2003,01,25,17,14,8.70
2003,01,25,17,15,8.70
2003,01,25,17,16,8.70
2003,01,25,17,17,8.70
2003,01,25,17,18,8.70
2003,01,25,17,19,8.70
2003,01,25,17,20,8.70
2003,01,25,17,21,8.70
2003,01,25,17,22,8.70
2003,01,25,17,23,8.70
2003,01,25,17,24,8.70
2003,01,25,17,25,8.70
2003,01,25,17,26,8.70
2003,01,25,17,27,8.70
2003,01,25,17,28,8.70
2003,01,25,17,29,8.70
2003,01,25,17,30,8.70
2003,01,25,17,31,8.70
2003,01,25,17,32,8.70
2003,01,25,17,33,8.70
2003,01,25,17,34,8.70
2003,01,25,17,35,8.70
2003,01,25,17,36,8.70
2003,01,25,17,37,8.70
2003,01,25,17,38,8.70
2003,01,25,17,39,8.80
2003,01,25,17,40,8.80
2003,01,25,17,41,8.80
2003,01,25,17,42,8.80
2003,01,25,17,43,8.80
2003,01,25,17,44,8.90
2003,01,25,17,45,8.90
2003,01,25,17,46,8.90
2003,01,25,17,47,8.90
2003,01,25,17,48,8.90
2003,01,25,17,49,8.90
2003,01,25,17,50,8.90
2003,01,25,17,51,9.00
2003,01,25,17,52,9.00
2003,01,25,17,53,9.00
2003,01,25,17,54,9.00
2003,01,25,17,55,9.00
2003,01,25,17,56,9.00
2003,01,25,17,57,9.00
2003,01,25,17,58,9.10
2003,01,25,17,59,9.10
2003,01,25,18,00,9.10
2003,01,25,18,01,9.20
2003,01,25,18,02,9.10
2003,01,25,18,03,9.10
2003,01,25,18,04,9.10
2003,01,25,18,05,9.20
2003,01,25,18,06,9.20
2003,01,25,18,07,9.10
2003,01,25,18,08,9.10
2003,01,25,18,09,9.20
2003,01,25,18,10,9.20
2003,01,25,18,11,9.20
2003,01,25,18,12,9.20
2003,01,25,18,13,9.20
2003,01,25,18,14,9.20
2003,01,25,18,15,9.20
2003,01,25,18,16,9.20
2003,01,25,18,17,9.20
2003,01,25,18,18,9.20
2003,01,25,18,19,9.20
2003,01,25,18,20,9.20
2003,01,25,18,21,9.20
2003,01,25,18,22,9.30
2003,01,25,18,23,9.30
2003,01,25,18,24,9.40
2003,01,25,18,25,9.50
2003,01,25,18,26,9.50
2003,01,25,18,27,9.50
2003,01,25,18,28,9.60
2003,01,25,18,29,9.60
2003,01,25,18,30,9.60
2003,01,25,18,31,9.50
2003,01,25,18,32,9.50
2003,01,25,18,33,9.50
2003,01,25,18,34,9.60
2003,01,25,18,35,9.50
2003,01,25,18,36,9.50
2003,01,25,18,37,9.60
2003,01,25,18,38,9.60
2003,01,25,18,39,9.60
2003,01,25,18,40,9.60
2003,01,25,18,41,9.70
2003,01,25,18,42,9.70
2003,01,25,18,43,9.70
2003,01,25,18,44,9.70
2003,01,25,18,45,9.70
2003,01,25,18,46,9.80
2003,01,25,18,47,9.80
2003,01,25,18,48,9.80
2003,01,25,18,49,9.90
2003,01,25,18,50,9.90
2003,01,25,18,51,9.90
2003,01,25,18,52,9.90
2003,01,25,18,53,9.90
2003,01,25,18,54,9.90
2003,01,25,18,55,9.90
2003,01,25,18,56,9.90
2003,01,25,18,57,9.90
2003,01,25,18,58,10.00
2003,01,25,18,59,10.10
2003,01,25,19,00,10.10
2003,01,25,19,01,10.10
2003,01,25,19,02,10.10
2003,01,25,19,03,10.10
2003,01,25,19,04,10.10
2003,01,25,19,05,10.10
2003,01,25,19,06,10.10
2003,01,25,19,07,10.20
2003,01,25,19,08,10.20
2003,01,25,19,09,10.20
2003,01,25,19,10,10.20
2003,01,25,19,11,10.20
2003,01,25,19,12,10.20
2003,01,25,19,13,10.20
2003,01,25,19,14,10.20
2003,01,25,19,15,10.20
2003,01,25,19,16,10.20
2003,01,25,19,17,10.20
2003,01,25,19,18,10.20
2003,01,25,19,19,10.20
2003,01,25,19,20,10.20
2003,01,25,19,21,10.20
2003,01,25,19,22,10.20
2003,01,25,19,23,10.20
2003,01,25,19,24,10.30
2003,01,25,19,25,10.20
2003,01,25,19,26,10.20
2003,01,25,19,27,10.20
2003,01,25,19,28,10.30
2003,01,25,19,29,10.30
2003,01,25,19,30,10.30
2003,01,25,19,31,10.20
2003,01,25,19,32,10.20
2003,01,25,19,33,10.20
2003,01,25,19,34,10.20
2003,01,25,19,35,10.20
2003,01,25,19,36,10.20
2003,01,25,19,37,10.20
2003,01,25,19,38,10.10
2003,01,25,19,39,10.20
2003,01,25,19,40,10.20
2003,01,25,19,41,10.20
2003,01,25,19,42,10.20
2003,01,25,19,43,10.20
2003,01,25,19,44,10.20
2003,01,25,19,45,10.20
2003,01,25,19,46,10.20
2003,01,25,19,47,10.20
2003,01,25,19,48,10.20
2003,01,25,19,49,10.30
2003,01,25,19,50,10.30
2003,01,25,19,51,10.30
2003,01,25,19,52,10.30
2003,01,25,19,53,10.30
2003,01,25,19,54,10.30
2003,01,25,19,55,10.30
2003,01,25,19,56,10.30
2003,01,25,19,57,10.30
2003,01,25,19,58,10.20
2003,01,25,19,59,10.20
2003,01,25,20,00,10.20
2003,01,25,20,01,10.20
2003,01,25,20,02,10.20
2003,01,25,20,03,10.20
2003,01,25,20,04,10.20
2003,01,25,20,05,10.20
2003,01,25,20,06,10.20
2003,01,25,20,07,10.20
2003,01,25,20,08,10.20
2003,01,25,20,09,10.20
2003,01,25,20,10,10.20
2003,01,25,20,11,10.20
2003,01,25,20,12,10.20
2003,01,25,20,13,10.20
2003,01,25,20,14,10.20
2003,01,25,20,15,10.20
2003,01,25,20,16,10.20
2003,01,25,20,17,10.10
2003,01,25,20,18,10.10
2003,01,25,20,19,10.10
2003,01,25,20,20,10.10
2003,01,25,20,21,10.10
2003,01,25,20,22,10.10
2003,01,25,20,23,10.20
2003,01,25,20,24,10.30
2003,01,25,20,25,10.30
2003,01,25,20,26,10.40
2003,01,25,20,27,10.40
2003,01,25,20,28,10.40
2003,01,25,20,29,10.40
2003,01,25,20,30,10.60
2003,01,25,20,31,10.60
2003,01,25,20,32,10.60
2003,01,25,20,33,10.60
2003,01,25,20,34,10.60
2003,01,25,20,35,10.60
2003,01,25,20,36,10.60
2003,01,25,20,37,10.60
2003,01,25,20,38,10.60
2003,01,25,20,39,10.60
2003,01,25,20,40,10.60
2003,01,25,20,41,10.60
2003,01,25,20,42,10.60
2003,01,25,20,43,10.60
2003,01,25,20,44,10.70
2003,01,25,20,45,10.70
2003,01,25,20,46,10.70
2003,01,25,20,47,10.70
2003,01,25,20,48,10.70
2003,01,25,20,49,10.70
2003,01,25,20,50,10.70
2003,01,25,20,51,10.70
2003,01,25,20,52,10.70
2003,01,25,20,53,10.70
2003,01,25,20,54,10.70
2003,01,25,20,55,10.80
2003,01,25,20,56,10.70
2003,01,25,20,57,10.70
2003,01,25,20,58,10.70
2003,01,25,20,59,10.60
2003,01,25,21,00,10.60
2003,01,25,21,01,10.60
2003,01,25,21,02,10.60
2003,01,25,21,03,10.60
2003,01,25,21,04,10.50
2003,01,25,21,05,10.40
2003,01,25,21,06,10.40
2003,01,25,21,07,10.40
2003,01,25,21,08,10.40
2003,01,25,21,09,10.40
2003,01,25,21,10,10.40
2003,01,25,21,11,10.40
2003,01,25,21,12,10.40
2003,01,25,21,13,10.40
2003,01,25,21,14,10.40
2003,01,25,21,15,10.40
2003,01,25,21,16,10.40
2003,01,25,21,17,10.40
2003,01,25,21,18,10.40
2003,01,25,21,19,10.40
2003,01,25,21,20,10.40
2003,01,25,21,21,10.40
2003,01,25,21,22,10.40
2003,01,25,21,23,10.40
2003,01,25,21,24,10.40
2003,01,25,21,25,10.40
2003,01,25,21,26,10.40
2003,01,25,21,27,10.40
2003,01,25,21,28,10.40
2003,01,25,21,29,10.40
2003,01,25,21,30,10.40
2003,01,25,21,31,10.40
2003,01,25,21,32,10.30
2003,01,25,21,33,10.30
2003,01,25,21,34,10.30
2003,01,25,21,35,10.30
2003,01,25,21,36,10.30
2003,01,25,21,37,10.20
2003,01,25,21,38,10.20
2003,01,25,21,39,10.20
2003,01,25,21,40,10.20
2003,01,25,21,41,10.10
2003,01,25,21,42,10.20
2003,01,25,21,43,10.10
2003,01,25,21,44,10.10
2003,01,25,21,45,10.10
2003,01,25,21,46,10.10
2003,01,25,21,47,10.10
2003,01,25,21,48,10.10
2003,01,25,21,49,10.10
2003,01,25,21,50,10.10
2003,01,25,21,51,10.10
2003,01,25,21,52,10.10
2003,01,25,21,53,10.10
2003,01,25,21,54,10.10
2003,01,25,21,55,10.10
2003,01,25,21,56,10.10
2003,01,25,21,57,10.10
2003,01,25,21,58,10.10
2003,01,25,21,59,10.10
2003,01,25,22,00,10.10
2003,01,25,22,01,10.10
2003,01,25,22,02,10.10
2003,01,25,22,03,10.10
2003,01,25,22,04,10.10
2003,01,25,22,05,10.10
2003,01,25,22,06,10.10
2003,01,25,22,07,10.10
2003,01,25,22,08,10.10
2003,01,25,22,09,10.10
2003,01,25,22,10,10.10
2003,01,25,22,11,10.20
2003,01,25,22,12,10.20
2003,01,25,22,13,10.20
2003,01,25,22,14,10.20
2003,01,25,22,15,10.20
2003,01,25,22,16,10.10
2003,01,25,22,17,10.10
2003,01,25,22,18,10.10
2003,01,25,22,19,10.10
2003,01,25,22,20,10.10
2003,01,25,22,21,10.10
2003,01,25,22,22,10.10
2003,01,25,22,23,10.20
2003,01,25,22,24,10.20
2003,01,25,22,25,10.20
2003,01,25,22,26,10.10
2003,01,25,22,27,10.10
2003,01,25,22,28,10.10
2003,01,25,22,29,10.10
2003,01,25,22,30,10.10
2003,01,25,22,31,10.10
2003,01,25,22,32,10.00
2003,01,25,22,33,9.90
2003,01,25,22,34,9.90
2003,01,25,22,35,9.90
2003,01,25,22,36,9.90
2003,01,25,22,37,9.80
2003,01,25,22,38,9.80
2003,01,25,22,39,9.80
2003,01,25,22,40,9.70
2003,01,25,22,41,9.70
2003,01,25,22,42,9.70
2003,01,25,22,43,9.70
2003,01,25,22,44,9.70
2003,01,25,22,45,9.70
2003,01,25,22,46,9.70
2003,01,25,22,47,9.70
2003,01,25,22,48,9.70
2003,01,25,22,49,9.70
2003,01,25,22,50,9.70
2003,01,25,22,51,9.70
2003,01,25,22,52,9.70
2003,01,25,22,53,9.80
2003,01,25,22,54,9.80
2003,01,25,22,55,9.80
2003,01,25,22,56,9.80
2003,01,25,22,57,9.80
2003,01,25,22,58,9.90
2003,01,25,22,59,9.90
2003,01,25,23,00,9.90
2003,01,25,23,01,9.90
2003,01,25,23,02,9.90
2003,01,25,23,03,9.90
2003,01,25,23,04,10.10
2003,01,25,23,05,10.10
2003,01,25,23,06,10.10
2003,01,25,23,07,10.10
2003,01,25,23,08,10.10
2003,01,25,23,09,10.10
2003,01,25,23,10,10.10
2003,01,25,23,11,10.10
2003,01,25,23,12,10.10
2003,01,25,23,13,10.10
2003,01,25,23,14,10.10
2003,01,25,23,15,10.10
2003,01,25,23,16,10.10
2003,01,25,23,17,10.10
2003,01,25,23,18,10.10
2003,01,25,23,19,10.10
2003,01,25,23,20,10.10
2003,01,25,23,21,10.10
2003,01,25,23,22,10.10
2003,01,25,23,23,10.00
2003,01,25,23,24,9.90
2003,01,25,23,25,9.90
2003,01,25,23,26,9.90
2003,01,25,23,27,9.90
2003,01,25,23,28,9.80
2003,01,25,23,29,9.80
2003,01,25,23,30,9.70
2003,01,25,23,31,9.70
2003,01,25,23,32,9.70
2003,01,25,23,33,9.70
2003,01,25,23,34,9.60
2003,01,25,23,35,9.60
2003,01,25,23,36,9.60
2003,01,25,23,37,9.60
2003,01,25,23,38,9.60
2003,01,25,23,39,9.50
2003,01,25,23,40,9.50
2003,01,25,23,41,9.50
2003,01,25,23,42,9.40
2003,01,25,23,43,9.40
2003,01,25,23,44,9.40
2003,01,25,23,45,9.40
2003,01,25,23,46,9.40
2003,01,25,23,47,9.40
2003,01,25,23,48,9.40
2003,01,25,23,49,9.40
2003,01,25,23,50,9.40
2003,01,25,23,51,9.40
2003,01,25,23,52,9.40
2003,01,25,23,53,9.50
2003,01,25,23,54,9.50
2003,01,25,23,55,9.50
2003,01,25,23,56,9.60
2003,01,25,23,57,9.60
2003,01,25,23,58,9.60
2003,01,25,23,59,9.60
